Weather History for Millville, NJ

Change the Weather History Date:

Friday, October 25, 2013

  Actual Average Record
Temperature  
Mean Temperature 44 °F -  
Max Temperature 55 °F 63 °F 78 °F (2001)
Min Temperature 32 °F 44 °F 27 °F (1962)
Degree Days  
Heating Degree Days 22    
Moisture  
Dew Point 33 °F    
Average Humidity 74    
Maximum Humidity 96    
Minimum Humidity 42    
Precipitation  
Precipitation 0.00 in - - ()
Sea Level Pressure  
Sea Level Pressure 30.19 in    
Wind  
Wind Speed 7 mph (WNW)    
Max Wind Speed 17 mph    
Max Gust Speed 25 mph    
Visibility 10 miles    
Events      
Averages and records for this station are not official NWS values.
T = Trace of Precipitation, MM = Missing Value Source: NWS Daily Summary

Daily Weather History Graph

Daily Weather History Graph

Search for Another Location

Airport:

Trip Planner

Search our weather history database for the weather conditions in past years. The results will help you decide how hot, cold, wet, or windy it might be!

Date:

Astronomy

Oct. 25, 2013 Rise Set
Actual Time 7:20 AM EDT 6:07 PM EDT
Civil Twilight 6:53 AM EDT 6:34 PM EDT
Nautical Twilight 6:21 AM EDT 7:06 PM EDT
Astronomical Twilight 5:50 AM EDT 7:37 PM EDT
Moon 11:25 PM EDT (10/25) 12:59 PM EDT (10/25)
Length of Visible Light 11h 41m
Length of Day
10h 46m
Waning Gibbous, 62% of the Moon is Illuminated
Oct 25
Waning Gibbous
Oct 26
Last Quarter
Nov 3
New
Nov 10
First Quarter
Nov 17
Full

Hourly Weather History & Observations

Time (EDT) Temp. Windchill Dew Point Humidity Pressure Visibility Wind Dir Wind Speed Gust Speed Precip Events Conditions
12:54 AM 35.1 °F 30.1 °F 30.9 °F 85% 30.09 in 10.0 mi West 5.8 mph - N/A   Clear
1:54 AM 35.1 °F 31.0 °F 30.9 °F 85% 30.10 in 10.0 mi West 4.6 mph - N/A   Clear
2:54 AM 34.0 °F 28.8 °F 30.9 °F 89% 30.11 in 10.0 mi West 5.8 mph - N/A   Clear
3:54 AM 35.1 °F - 32.0 °F 89% 30.11 in 10.0 mi Calm Calm - N/A   Clear
4:54 AM 32.0 °F 27.5 °F 30.9 °F 96% 30.13 in 10.0 mi West 4.6 mph - N/A   Clear
5:54 AM 32.0 °F 26.4 °F 30.9 °F 96% 30.14 in 10.0 mi West 5.8 mph - N/A   Clear
6:54 AM 35.1 °F 29.3 °F 32.0 °F 89% 30.16 in 10.0 mi West 6.9 mph - N/A   Clear
7:54 AM 36.0 °F 31.1 °F 33.1 °F 89% 30.18 in 10.0 mi West 5.8 mph - N/A   Clear
8:54 AM 42.1 °F 37.1 °F 34.0 °F 73% 30.20 in 10.0 mi West 8.1 mph - N/A   Clear
9:54 AM 46.0 °F 39.9 °F 35.1 °F 66% 30.22 in 10.0 mi WNW 13.8 mph 17.3 mph N/A   Clear
10:54 AM 48.9 °F - 34.0 °F 56% 30.21 in 10.0 mi NW 11.5 mph - N/A   Clear
11:54 AM 51.1 °F - 35.1 °F 54% 30.21 in 10.0 mi NW 10.4 mph - N/A   Clear
12:54 PM 51.1 °F - 34.0 °F 52% 30.20 in 10.0 mi NW 13.8 mph 19.6 mph N/A   Scattered Clouds
1:54 PM 53.1 °F - 33.1 °F 47% 30.19 in 10.0 mi WNW 12.7 mph 18.4 mph N/A   Scattered Clouds
2:54 PM 55.0 °F - 32.0 °F 42% 30.18 in 10.0 mi WNW 17.3 mph 25.3 mph N/A   Mostly Cloudy
3:54 PM 54.0 °F - 33.1 °F 45% 30.19 in 10.0 mi WNW 12.7 mph - N/A   Mostly Cloudy
4:54 PM 53.1 °F - 33.1 °F 47% 30.19 in 10.0 mi WNW 15.0 mph 19.6 mph N/A   Mostly Cloudy
5:54 PM 48.9 °F - 33.1 °F 54% 30.22 in 10.0 mi WNW 6.9 mph - N/A   Clear
6:54 PM 41.0 °F 37.1 °F 34.0 °F 76% 30.24 in 10.0 mi West 5.8 mph - N/A   Clear
7:54 PM 37.0 °F 34.5 °F 34.0 °F 89% 30.25 in 10.0 mi West 3.5 mph - N/A   Clear
8:54 PM 35.1 °F - 33.1 °F 92% 30.26 in 10.0 mi Calm Calm - N/A   Clear
9:54 PM 37.0 °F 33.3 °F 33.1 °F 86% 30.28 in 10.0 mi West 4.6 mph - N/A   Clear
10:54 PM 39.0 °F 36.8 °F 33.1 °F 79% 30.29 in 10.0 mi WSW 3.5 mph - N/A   Clear
11:54 PM 33.1 °F 30.0 °F 30.9 °F 92% 30.29 in 10.0 mi WSW 3.5 mph - N/A   Clear